Location: Amsterdam
(30.7274°N, 84.4357°W)
Time: 13:25:22
(UTC+00:00)

Tiros 1 despin weight - Pass Details

Date: 10 February 2026
Orbit: 556 x 593 km, 48.2° (Epoch: 13 March)

Event Time Altitude Azimuth Distance (km) Brightness Sun altitude
Rises 00:49:54 0° 282° (WNW) 2,725 ? -19.6°
Reaches altitude 10° 00:53:19 10° 311° (NW) 1,833 ? -20.3°
Maximum altitude 00:55:14 13° 339° (NNW) 1,663 ? -20.7°
Enters shadow 00:57:05 10° 6° (N) 1,828 ? -21.1°
